| time (UTC) | temp C | wind direction | speed KPH | gust KPH | rain 1hr cm | rain 24hr cm | rain mn cm | humidity % | barometer mb |
| 20260507021604 | 12 | 111 | 0.0 | 6.4 | 0.00 | 0.00 | 0.00 | 87 | 999.3 |
| 20260507021104 | 12 | 114 | 3.2 | 6.4 | 0.00 | 0.00 | 0.00 | 88 | 999.2 |
| 20260507020105 | 11 | 135 | 0.0 | 3.2 | 0.00 | 0.00 | 0.00 | 95 | 999.1 |
| 20260507015603 | 11 | 151 | 0.0 | 3.2 | 0.00 | 0.00 | 0.00 | 96 | 999.2 |
| 20260507015103 | 11 | 173 | 0.0 | 6.4 | 0.00 | 0.00 | 0.00 | 96 | 999.1 |
| 20260507014603 | 11 | 173 | 3.2 | 6.4 | 0.00 | 0.00 | 0.00 | 97 | 999.1 |
| 20260507014104 | 11 | 192 | 4.8 | 9.7 | 0.00 | 0.00 | 0.00 | 98 | 999.1 |
| 20260507013602 | 11 | 213 | 6.4 | 9.7 | 0.00 | 0.00 | 0.00 | 98 | 999.0 |
| 20260507013103 | 11 | 206 | 6.4 | 6.4 | 0.00 | 0.00 | 0.00 | 97 | 999.2 |
| 20260507012100 | 11 | 224 | 4.8 | 6.4 | 0.00 | 0.00 | 0.00 | 96 | 999.1 |
| 20260507011558 | 11 | 108 | 3.2 | 9.7 | 0.00 | 0.00 | 0.00 | 95 | 998.9 |
| 20260507010557 | 11 | 90 | 4.8 | 6.4 | 0.00 | 0.00 | 0.00 | 96 | 998.9 |
| 20260507010057 | 11 | 265 | 0.0 | 6.4 | 0.00 | 0.00 | 0.00 | 97 | 998.9 |
| 20260507004557 | 11 | 237 | 3.2 | 9.7 | 0.00 | 0.00 | 0.00 | 97 | 998.9 |
| 20260507004057 | 11 | 233 | 4.8 | 9.7 | 0.00 | 0.00 | 0.00 | 96 | 998.8 |
| 20260507003557 | 12 | 154 | 6.4 | 9.7 | 0.00 | 0.00 | 0.00 | 92 | 998.6 |
| 20260507003057 | 12 | 96 | 0.0 | 6.4 | 0.00 | 0.00 | 0.00 | 90 | 998.5 |
| 20260507002056 | 12 | 89 | 3.2 | 6.4 | 0.00 | 0.00 | 0.00 | 91 | 998.4 |
| 20260507001057 | 11 | 90 | 0.0 | 17.7 | 0.00 | 0.00 | 0.00 | 94 | 998.2 |
| 20260507000556 | 11 | 90 | 12.9 | 17.7 | 0.00 | 0.00 | 0.00 | 95 | 998.1 |
| 20260507000058 | 11 | 84 | 12.9 | 17.7 | 0.00 | 0.00 | 0.00 | 95 | 997.7 |
| 20260506235556 | 11 | 62 | 6.4 | 9.7 | 0.00 | 0.00 | 0.00 | 95 | 997.8 |
| 20260506234556 | 11 | 343 | 4.8 | 12.9 | 0.00 | 0.00 | 0.00 | 96 | 998.1 |
| 20260506234056 | 11 | 338 | 8.0 | 12.9 | 0.00 | 0.00 | 0.00 | 97 | 998.2 |
| 20260506233555 | 11 | 12 | 3.2 | 12.9 | 0.00 | 0.00 | 0.00 | 97 | 997.9 |
| 20260506233056 | 11 | 341 | 0.0 | 12.9 | 0.00 | 0.00 | 0.00 | 97 | 998.0 |
| 20260506232555 | 11 | 313 | 9.7 | 12.9 | 0.00 | 0.00 | 0.00 | 97 | 998.1 |
| 20260506232057 | 11 | 310 | 3.2 | 12.9 | 0.00 | 0.00 | 0.00 | 97 | 998.2 |
| 20260506231556 | 11 | 310 | 3.2 | 12.9 | 0.00 | 0.00 | 0.00 | 97 | 998.3 |
| 20260506231056 | 11 | 302 | 8.0 | 12.9 | 0.00 | 0.00 | 0.00 | 97 | 998.2 |
| 20260506230556 | 11 | 302 | 6.4 | 12.9 | 0.00 | 0.00 | 0.00 | 97 | 998.5 |
| 20260506230056 | 11 | 299 | 3.2 | 17.7 | 0.00 | 0.00 | 0.00 | 97 | 998.3 |
| 20260506225556 | 11 | 287 | 6.4 | 17.7 | 0.00 | 0.00 | 0.00 | 97 | 998.4 |
| 20260506225055 | 11 | 272 | 12.9 | 17.7 | 0.00 | 0.00 | 0.00 | 96 | 998.4 |
| 20260506224556 | 11 | 264 | 16.1 | 17.7 | 0.00 | 0.00 | 0.00 | 95 | 998.5 |
| 20260506223555 | 11 | 273 | 11.3 | 17.7 | 0.00 | 0.00 | 0.00 | 93 | 998.2 |
| 20260506223056 | 12 | 255 | 6.4 | 12.9 | 0.00 | 0.00 | 0.00 | 94 | 997.9 |
| 20260506222055 | 12 | 283 | 9.7 | 12.9 | 0.00 | 0.00 | 0.00 | 91 | 997.8 |
| 20260506221554 | 13 | 303 | 4.8 | 9.7 | 0.00 | 0.00 | 0.00 | 90 | 997.6 |
| 20260506221055 | 13 | 311 | 3.2 | 6.4 | 0.00 | 0.00 | 0.00 | 89 | 997.5 |
| 20260506220556 | 14 | 165 | 3.2 | 6.4 | 0.00 | 0.00 | 0.00 | 86 | 997.4 |
| 20260506220057 | 15 | 150 | 0.0 | 9.7 | 0.00 | 0.00 | 0.00 | 80 | 997.2 |
| 20260506215554 | 15 | 144 | 1.6 | 9.7 | 0.00 | 0.00 | 0.00 | 79 | 997.1 |
| 20260506214554 | 14 | 153 | 0.0 | 6.4 | 0.00 | 0.00 | 0.00 | 83 | 996.9 |
| 20260506213554 | 13 | 108 | 1.6 | 3.2 | 0.00 | 0.00 | 0.00 | 84 | 996.8 |
| 20260506213054 | 13 | 94 | 1.6 | 6.4 | 0.00 | 0.00 | 0.00 | 84 | 996.8 |
| 20260506212555 | 13 | 129 | 0.0 | 6.4 | 0.00 | 0.00 | 0.00 | 85 | 996.8 |
| 20260506212055 | 13 | 131 | 1.6 | 9.7 | 0.00 | 0.00 | 0.00 | 84 | 996.9 |
| 20260506211554 | 13 | 125 | 3.2 | 9.7 | 0.00 | 0.00 | 0.00 | 84 | 996.8 |
| 20260506211055 | 13 | 122 | 1.6 | 9.7 | 0.00 | 0.00 | 0.00 | 84 | 996.8 |
| 20260506210554 | 13 | 99 | 6.4 | 9.7 | 0.00 | 0.00 | 0.00 | 85 | 996.3 |
| 20260506210056 | 13 | 87 | 4.8 | 11.3 | 0.00 | 0.00 | 0.00 | 84 | 996.8 |
| 20260506205554 | 13 | 90 | 6.4 | 11.3 | 0.00 | 0.00 | 0.00 | 84 | 996.8 |
| 20260506205055 | 13 | 117 | 6.4 | 11.3 | 0.00 | 0.00 | 0.00 | 84 | 996.7 |
| 20260506204555 | 13 | 121 | 1.6 | 11.3 | 0.00 | 0.00 | 0.00 | 85 | 996.9 |
| 20260506204054 | 13 | 110 | 3.2 | 11.3 | 0.00 | 0.00 | 0.00 | 84 | 997.0 |
| 20260506203554 | 13 | 127 | 6.4 | 6.4 | 0.00 | 0.00 | 0.00 | 84 | 996.7 |
| 20260506202554 | 13 | 102 | 3.2 | 11.3 | 0.00 | 0.00 | 0.00 | 84 | 996.8 |
| 20260506201554 | 13 | 108 | 3.2 | 6.4 | 0.00 | 0.00 | 0.00 | 84 | 996.8 |
| 20260506201054 | 13 | 99 | 6.4 | 12.9 | 0.00 | 0.00 | 0.00 | 85 | 996.8 |
| 20260506200554 | 13 | 90 | 3.2 | 14.5 | 0.00 | 0.00 | 0.00 | 84 | 996.8 |
| 20260506195553 | 13 | 93 | 8.0 | 17.7 | 0.00 | 0.00 | 0.00 | 83 | 996.9 |
| 20260506195053 | 14 | 92 | 11.3 | 17.7 | 0.00 | 0.00 | 0.00 | 82 | 996.7 |
| 20260506194554 | 13 | 86 | 8.0 | 14.5 | 0.00 | 0.00 | 0.00 | 82 | 996.7 |
| 20260506194053 | 13 | 86 | 3.2 | 14.5 | 0.00 | 0.00 | 0.00 | 81 | 996.7 |
| 20260506193553 | 13 | 95 | 12.9 | 14.5 | 0.00 | 0.00 | 0.00 | 82 | 997.0 |
| 20260506193055 | 13 | 50 | 1.6 | 11.3 | 0.00 | 0.00 | 0.00 | 83 | 997.0 |
| 20260506192554 | 13 | 10 | 3.2 | 12.9 | 0.00 | 0.00 | 0.00 | 83 | 996.9 |
| 20260506192054 | 13 | 46 | 3.2 | 12.9 | 0.00 | 0.00 | 0.00 | 85 | 997.2 |
| 20260506191554 | 13 | 100 | 1.6 | 11.3 | 0.00 | 0.00 | 0.00 | 86 | 997.1 |
| 20260506191054 | 13 | 112 | 3.2 | 9.7 | 0.00 | 0.00 | 0.00 | 86 | 997.2 |
| 20260506190553 | 13 | 292 | 3.2 | 6.4 | 0.00 | 0.00 | 0.00 | 87 | 997.1 |
| 20260506190054 | 13 | 292 | 3.2 | 6.4 | 0.00 | 0.00 | 0.00 | 87 | 997.2 |
| 20260506185553 | 13 | 304 | 3.2 | 11.3 | 0.00 | 0.00 | 0.00 | 87 | 997.1 |
| 20260506184552 | 13 | 336 | 4.8 | 24.1 | 0.00 | 0.00 | 0.00 | 88 | 997.2 |
| 20260506184054 | 13 | 345 | 11.3 | 24.1 | 0.00 | 0.00 | 0.00 | 88 | 997.0 |
| 20260506183553 | 13 | 359 | 4.8 | 17.7 | 0.00 | 0.00 | 0.00 | 87 | 996.8 |
| 20260506183053 | 13 | 327 | 4.8 | 22.5 | 0.00 | 0.00 | 0.00 | 89 | 996.9 |
| 20260506182554 | 13 | 314 | 3.2 | 32.2 | 0.00 | 0.00 | 0.00 | 89 | 996.8 |
| 20260506182054 | 16 | 318 | 16.1 | 32.2 | 0.00 | 0.00 | 0.00 | 84 | 996.8 |
| 20260506181553 | 16 | 336 | 8.0 | 11.3 | 0.00 | 0.00 | 0.00 | 76 | 996.8 |
| 20260506181054 | 16 | 343 | 3.2 | 6.4 | 0.00 | 0.00 | 0.00 | 76 | 996.3 |
| 20260506180554 | 16 | 39 | 3.2 | 6.4 | 0.00 | 0.00 | 0.00 | 76 | 996.3 |
| 20260506180054 | 16 | 75 | 0.0 | 6.4 | 0.00 | 0.00 | 0.00 | 75 | 996.2 |
| 20260506175553 | 16 | 90 | 0.0 | 6.4 | 0.00 | 0.00 | 0.00 | 73 | 996.1 |
| 20260506174553 | 17 | 90 | 3.2 | 9.7 | 0.00 | 0.00 | 0.00 | 71 | 996.0 |
| 20260506174053 | 17 | 90 | 3.2 | 9.7 | 0.00 | 0.00 | 0.00 | 71 | 996.1 |
| 20260506173552 | 17 | 85 | 6.4 | 9.7 | 0.00 | 0.00 | 0.00 | 71 | 996.1 |
| 20260506173053 | 16 | 86 | 3.2 | 9.7 | 0.00 | 0.00 | 0.00 | 72 | 996.1 |
| 20260506172553 | 16 | 90 | 6.4 | 11.3 | 0.00 | 0.00 | 0.00 | 73 | 996.1 |
| 20260506172052 | 16 | 93 | 6.4 | 11.3 | 0.00 | 0.00 | 0.00 | 73 | 996.1 |
| 20260506171553 | 16 | 88 | 6.4 | 11.3 | 0.00 | 0.00 | 0.00 | 73 | 996.0 |
| 20260506170552 | 16 | 349 | 3.2 | 11.3 | 0.00 | 0.00 | 0.00 | 72 | 996.1 |
| 20260506170053 | 16 | 337 | 6.4 | 11.3 | 0.00 | 0.00 | 0.00 | 76 | 996.1 |
| 20260506165553 | 16 | 338 | 6.4 | 11.3 | 0.00 | 0.00 | 0.00 | 76 | 996.1 |
| 20260506164553 | 16 | 315 | 16.1 | 27.4 | 0.00 | 0.00 | 0.00 | 77 | 996.4 |
| 20260506163552 | 16 | 291 | 16.1 | 32.2 | 0.00 | 0.00 | 0.00 | 77 | 996.4 |
| 20260506163052 | 20 | 197 | 12.9 | 25.7 | 0.00 | 0.00 | 0.00 | 60 | 996.3 |
| 20260506162552 | 20 | 154 | 17.7 | 29.0 | 0.00 | 0.00 | 0.00 | 56 | 996.5 |
| 20260506162053 | 20 | 156 | 22.5 | 33.8 | 0.00 | 0.00 | 0.00 | 55 | 996.3 |
| 20260506161552 | 20 | 151 | 20.9 | 33.8 | 0.00 | 0.00 | 0.00 | 56 | 996.1 |
| 20260506161053 | 20 | 145 | 25.7 | 33.8 | 0.00 | 0.00 | 0.00 | 55 | 996.1 |
| 20260506160552 | 20 | 151 | 25.7 | 40.2 | 0.00 | 0.00 | 0.00 | 56 | 996.0 |
| 20260506160052 | 20 | 154 | 25.7 | 40.2 | 0.00 | 0.00 | 0.00 | 56 | 996.3 |
| 20260506155552 | 20 | 155 | 20.9 | 37.0 | 0.00 | 0.00 | 0.00 | 56 | 996.5 |
| 20260506155053 | 20 | 151 | 17.7 | 32.2 | 0.00 | 0.00 | 0.00 | 56 | 996.6 |
| 20260506154552 | 20 | 150 | 19.3 | 27.4 | 0.00 | 0.00 | 0.00 | 57 | 996.8 |
| 20260506154051 | 20 | 154 | 17.7 | 27.4 | 0.00 | 0.00 | 0.00 | 56 | 996.5 |
| 20260506153552 | 20 | 155 | 16.1 | 29.0 | 0.00 | 0.00 | 0.00 | 55 | 996.6 |
| 20260506153051 | 20 | 150 | 12.9 | 29.0 | 0.00 | 0.00 | 0.00 | 56 | 996.7 |
| 20260506152552 | 20 | 143 | 14.5 | 24.1 | 0.00 | 0.00 | 0.00 | 54 | 996.9 |
| 20260506152052 | 20 | 147 | 16.1 | 25.7 | 0.00 | 0.00 | 0.00 | 54 | 997.0 |
| 20260506151552 | 20 | 164 | 17.7 | 25.7 | 0.00 | 0.00 | 0.00 | 53 | 997.0 |
| 20260506151051 | 20 | 164 | 19.3 | 25.7 | 0.00 | 0.00 | 0.00 | 52 | 997.0 |
| 20260506150551 | 20 | 160 | 11.3 | 22.5 | 0.00 | 0.00 | 0.00 | 53 | 997.1 |
| 20260506145551 | 20 | 159 | 12.9 | 17.7 | 0.00 | 0.00 | 0.00 | 51 | 997.2 |
| 20260506145052 | 20 | 163 | 8.0 | 17.7 | 0.00 | 0.00 | 0.00 | 52 | 997.1 |
| 20260506144551 | 20 | 165 | 6.4 | 14.5 | 0.00 | 0.00 | 0.00 | 53 | 997.2 |
| 20260506144051 | 20 | 148 | 3.2 | 14.5 | 0.00 | 0.00 | 0.00 | 53 | 997.2 |
| 20260506143051 | 20 | 155 | 1.6 | 11.3 | 0.00 | 0.00 | 0.00 | 54 | 997.3 |
| 20260506142051 | 20 | 158 | 3.2 | 20.9 | 0.00 | 0.00 | 0.00 | 53 | 997.4 |
| 20260506141551 | 20 | 154 | 11.3 | 20.9 | 0.00 | 0.00 | 0.00 | 52 | 997.4 |
| 20260506141052 | 20 | 148 | 6.4 | 14.5 | 0.00 | 0.00 | 0.00 | 53 | 997.6 |
| 20260506140552 | 20 | 155 | 4.8 | 12.9 | 0.00 | 0.00 | 0.00 | 53 | 997.5 |
| 20260506135550 | 20 | 159 | 9.7 | 14.5 | 0.00 | 0.00 | 0.00 | 55 | 997.7 |
| 20260506135050 | 20 | 146 | 8.0 | 14.5 | 0.00 | 0.00 | 0.00 | 55 | 997.7 |
| 20260506134052 | 20 | 160 | 8.0 | 17.7 | 0.00 | 0.00 | 0.00 | 54 | 998.0 |
| 20260506133550 | 20 | 161 | 9.7 | 17.7 | 0.00 | 0.00 | 0.00 | 53 | 997.9 |
| 20260506133051 | 20 | 150 | 12.9 | 17.7 | 0.00 | 0.00 | 0.00 | 52 | 998.0 |
| 20260506132051 | 20 | 162 | 4.8 | 17.7 | 0.00 | 0.00 | 0.00 | 52 | 998.0 |
| 20260506131550 | 20 | 176 | 11.3 | 25.7 | 0.00 | 0.00 | 0.00 | 51 | 998.3 |
| 20260506130551 | 21 | 178 | 16.1 | 24.1 | 0.00 | 0.00 | 0.00 | 48 | 998.1 |
| 20260506130051 | 20 | 189 | 12.9 | 22.5 | 0.00 | 0.00 | 0.00 | 51 | 998.2 |
| 20260506125550 | 20 | 220 | 6.4 | 12.9 | 0.00 | 0.00 | 0.00 | 50 | 998.2 |
| 20260506124550 | 20 | 177 | 9.7 | 20.9 | 0.00 | 0.00 | 0.00 | 50 | 998.5 |
| 20260506123551 | 20 | 232 | 4.8 | 11.3 | 0.00 | 0.00 | 0.00 | 52 | 998.5 |
| 20260506123050 | 21 | 212 | 3.2 | 11.3 | 0.00 | 0.00 | 0.00 | 52 | 998.5 |
| 20260506122549 | 20 | 213 | 6.4 | 11.3 | 0.00 | 0.00 | 0.00 | 51 | 998.7 |
| 20260506122049 | 20 | 221 | 3.2 | 9.7 | 0.00 | 0.00 | 0.00 | 51 | 998.7 |
| 20260506121550 | 20 | 222 | 6.4 | 9.7 | 0.00 | 0.00 | 0.00 | 52 | 998.7 |
| 20260506121050 | 19 | 230 | 4.8 | 6.4 | 0.00 | 0.00 | 0.00 | 55 | 998.8 |
| 20260506120549 | 19 | 223 | 4.8 | 9.7 | 0.00 | 0.00 | 0.00 | 58 | 998.8 |
| 20260506120050 | 19 | 213 | 4.8 | 9.7 | 0.00 | 0.00 | 0.00 | 55 | 998.7 |
| 20260506115550 | 19 | 193 | 3.2 | 12.9 | 0.00 | 0.00 | 0.00 | 55 | 998.9 |
| 20260506115049 | 19 | 195 | 3.2 | 12.9 | 0.00 | 0.00 | 0.00 | 57 | 999.0 |
| 20260506114549 | 19 | 201 | 11.3 | 14.5 | 0.00 | 0.00 | 0.00 | 53 | 998.9 |
| 20260506114050 | 20 | 207 | 6.4 | 17.7 | 0.00 | 0.00 | 0.00 | 54 | 998.9 |
| 20260506113549 | 19 | 221 | 6.4 | 17.7 | 0.00 | 0.00 | 0.00 | 55 | 998.9 |
| 20260506113049 | 20 | 230 | 9.7 | 17.7 | 0.00 | 0.00 | 0.00 | 54 | 998.9 |
| 20260506112550 | 19 | 234 | 6.4 | 17.7 | 0.00 | 0.00 | 0.00 | 54 | 998.9 |
| 20260506112049 | 20 | 219 | 11.3 | 20.9 | 0.00 | 0.00 | 0.00 | 53 | 999.1 |
| 20260506111550 | 19 | 212 | 9.7 | 20.9 | 0.00 | 0.00 | 0.00 | 55 | 999.0 |
| 20260506111049 | 19 | 204 | 8.0 | 17.7 | 0.00 | 0.00 | 0.00 | 55 | 999.2 |
| 20260506110549 | 20 | 216 | 8.0 | 17.7 | 0.00 | 0.00 | 0.00 | 58 | 998.9 |
| 20260506110049 | 19 | 254 | 6.4 | 12.9 | 0.00 | 0.00 | 0.00 | 59 | 999.0 |
| 20260506105050 | 18 | 262 | 6.4 | 11.3 | 0.00 | 0.00 | 0.00 | 59 | 999.3 |
| 20260506104549 | 18 | 238 | 6.4 | 12.9 | 0.00 | 0.00 | 0.00 | 58 | 999.4 |
| 20260506103549 | 18 | 267 | 8.0 | 20.9 | 0.00 | 0.00 | 0.00 | 60 | 999.4 |
| 20260506103050 | 18 | 270 | 12.9 | 20.9 | 0.00 | 0.00 | 0.00 | 60 | 999.5 |
| 20260506102548 | 18 | 252 | 12.9 | 20.9 | 0.00 | 0.00 | 0.00 | 60 | 999.3 |
| 20260506102048 | 18 | 223 | 6.4 | 14.5 | 0.00 | 0.00 | 0.00 | 58 | 999.5 |
| 20260506101049 | 18 | 261 | 6.4 | 14.5 | 0.00 | 0.00 | 0.00 | 61 | 999.3 |
| 20260506100548 | 17 | 247 | 8.0 | 17.7 | 0.00 | 0.00 | 0.00 | 61 | 999.5 |
| 20260506100049 | 17 | 240 | 12.9 | 17.7 | 0.00 | 0.00 | 0.00 | 62 | 999.4 |
| 20260506095548 | 17 | 248 | 8.0 | 17.7 | 0.00 | 0.00 | 0.00 | 65 | 999.5 |
| 20260506095049 | 17 | 232 | 11.3 | 17.7 | 0.00 | 0.00 | 0.00 | 66 | 999.5 |
| 20260506094549 | 17 | 208 | 6.4 | 17.7 | 0.00 | 0.00 | 0.00 | 66 | 999.5 |
| 20260506093548 | 17 | 228 | 12.9 | 17.7 | 0.00 | 0.00 | 0.00 | 66 | 999.5 |
| 20260506093048 | 17 | 224 | 6.4 | 17.7 | 0.00 | 0.00 | 0.00 | 68 | 999.7 |
| 20260506092548 | 17 | 246 | 9.7 | 17.7 | 0.00 | 0.00 | 0.00 | 65 | 999.5 |
| 20260506092048 | 16 | 277 | 8.0 | 14.5 | 0.00 | 0.00 | 0.00 | 69 | 999.6 |
| 20260506091049 | 16 | 249 | 3.2 | 17.7 | 0.00 | 0.00 | 0.00 | 69 | 999.6 |
| 20260506090548 | 16 | 240 | 8.0 | 17.7 | 0.00 | 0.00 | 0.00 | 71 | 999.5 |
| 20260506090049 | 16 | 240 | 6.4 | 17.7 | 0.00 | 0.00 | 0.00 | 71 | 999.5 |
| 20260506085549 | 16 | 261 | 8.0 | 17.7 | 0.00 | 0.00 | 0.00 | 72 | 999.5 |
| 20260506085049 | 16 | 264 | 6.4 | 17.7 | 0.00 | 0.00 | 0.00 | 73 | 999.4 |
| 20260506083548 | 15 | 274 | 8.0 | 17.7 | 0.00 | 0.00 | 0.00 | 77 | 999.5 |
| 20260506082549 | 15 | 270 | 9.7 | 12.9 | 0.00 | 0.00 | 0.00 | 74 | 999.6 |
| 20260506081548 | 14 | 292 | 12.9 | 17.7 | 0.00 | 0.00 | 0.00 | 78 | 999.5 |
| 20260506073048 | 14 | 292 | 16.1 | 22.5 | 0.00 | 0.00 | 0.00 | 80 | 999.4 |
| 20260506072547 | 14 | 292 | 16.1 | 22.5 | 0.00 | 0.00 | 0.00 | 80 | 999.6 |
| 20260506071547 | 14 | 274 | 12.9 | 22.5 | 0.00 | 0.00 | 0.00 | 79 | 999.5 |
| 20260506071047 | 14 | 270 | 14.5 | 20.9 | 0.00 | 0.00 | 0.00 | 81 | 999.4 |
| 20260506070547 | 13 | 268 | 14.5 | 24.1 | 0.00 | 0.00 | 0.00 | 82 | 999.5 |
| 20260506062047 | 13 | 267 | 14.5 | 22.5 | 0.00 | 0.00 | 0.00 | 88 | 999.5 |
| 20260506061547 | 13 | 267 | 11.3 | 22.5 | 0.00 | 0.00 | 0.00 | 89 | 999.4 |
| 20260506061048 | 13 | 266 | 8.0 | 17.7 | 0.00 | 0.00 | 0.00 | 91 | 999.3 |
| 20260506060546 | 12 | 263 | 9.7 | 14.5 | 0.00 | 0.00 | 0.00 | 91 | 999.1 |
| 20260506051047 | 11 | 219 | 1.6 | 6.4 | 0.00 | 0.00 | 0.00 | 99 | 998.7 |
| 20260506050546 | 11 | 216 | 3.2 | 6.4 | 0.00 | 0.00 | 0.00 | 99 | 998.6 |
| 20260506044546 | 11 | 213 | 3.2 | 6.4 | 0.00 | 0.00 | 0.00 | 99 | 998.8 |
| 20260506044046 | 11 | 208 | 3.2 | 3.2 | 0.00 | 0.00 | 0.00 | 99 | 998.6 |
| 20260506043545 | 11 | 208 | 3.2 | 3.2 | 0.00 | 0.00 | 0.00 | 99 | 998.7 |
| 20260506043046 | 11 | 219 | 3.2 | 6.4 | 0.00 | 0.00 | 0.00 | 99 | 998.8 |
| 20260506042545 | 11 | 237 | 3.2 | 6.4 | 0.00 | 0.00 | 0.00 | 99 | 998.6 |
| 20260506042045 | 11 | 248 | 3.2 | 6.4 | 0.00 | 0.00 | 0.00 | 99 | 998.5 |
| 20260506041546 | 11 | 244 | 3.2 | 6.4 | 0.00 | 0.00 | 0.00 | 99 | 998.5 |
| 20260506041045 | 11 | 234 | 3.2 | 6.4 | 0.00 | 0.00 | 0.00 | 99 | 998.2 |
| 20260506040544 | 11 | 225 | 1.6 | 3.2 | 0.00 | 0.00 | 0.00 | 99 | 998.1 |
| 20260506040047 | 11 | 225 | 0.0 | 3.2 | 0.00 | 0.00 | 0.00 | 99 | 998.3 |
| 20260506035545 | 11 | 225 | 3.2 | 3.2 | 0.00 | 0.00 | 0.00 | 99 | 998.3 |
| 20260506035046 | 11 | 224 | 1.6 | 3.2 | 0.00 | 0.00 | 0.00 | 99 | 998.2 |
| 20260506034545 | 11 | 219 | 0.0 | 6.4 | 0.00 | 0.00 | 0.00 | 99 | 998.0 |
| 20260506034045 | 11 | 224 | 3.2 | 9.7 | 0.00 | 0.00 | 0.00 | 99 | 998.0 |
| 20260506033546 | 11 | 233 | 3.2 | 9.7 | 0.00 | 0.00 | 0.00 | 99 | 998.2 |
| 20260506033045 | 11 | 241 | 6.4 | 9.7 | 0.00 | 0.00 | 0.00 | 99 | 998.2 |
| 20260506032546 | 11 | 242 | 6.4 | 11.3 | 0.00 | 0.00 | 0.00 | 99 | 998.1 |
| 20260506032046 | 11 | 234 | 4.8 | 11.3 | 0.00 | 0.00 | 0.00 | 99 | 998.3 |
| 20260506031545 | 11 | 227 | 6.4 | 9.7 | 0.00 | 0.00 | 0.00 | 99 | 998.1 |
| 20260506031045 | 11 | 219 | 4.8 | 11.3 | 0.00 | 0.00 | 0.00 | 99 | 998.1 |
| 20260506030545 | 11 | 216 | 6.4 | 11.3 | 0.00 | 0.00 | 0.00 | 99 | 998.0 |
| 20260506030045 | 11 | 216 | 6.4 | 11.3 | 0.00 | 0.00 | 0.00 | 99 | 998.1 |
| 20260506025045 | 11 | 222 | 6.4 | 6.4 | 0.00 | 0.00 | 0.00 | 98 | 997.9 |
| 20260506024544 | 11 | 224 | 4.8 | 6.4 | 0.00 | 0.00 | 0.00 | 98 | 997.8 |
| 20260506024045 | 11 | 224 | 3.2 | 6.4 | 0.00 | 0.00 | 0.00 | 97 | 997.7 |
| 20260506023544 | 11 | 223 | 3.2 | 6.4 | 0.00 | 0.00 | 0.00 | 97 | 997.8 |
| 20260506023044 | 11 | 224 | 3.2 | 6.4 | 0.00 | 0.00 | 0.00 | 97 | 997.8 |
| 20260506022546 | 11 | 227 | 3.2 | 6.4 | 0.00 | 0.00 | 0.00 | 96 | 997.6 |
| 20260506022044 | 11 | 234 | 3.2 | 9.7 | 0.00 | 0.00 | 0.00 | 96 | 997.6 |